User: anonymous   Login
Location: Fort Wayne
(41.1310°N, 85.1290°W)
Time: 01:19:38
(UTC-04:00)
Language:

BREEZE-M DEB (TANK) - Orbit

View from above orbital plane
View from above orbital plane
View from above satellite
View from above satellite

Ground track
Ground track

The orbit data is extracted from the following two-line orbital elements,

1 27821U 03024B   17115.58012271 +.00003754 +00000-0 +36972-3 0  9999
2 27821 049.6062 321.9486 4941331 349.4681 003.1549 05.75551132277419
Epoch (UTC): 25 April 2017 13:55:22
Eccentricity: 0.4941331
inclination: 49.6062°
perigee height: 275 km
apogee height: 13273 km
right ascension of ascending node: 321.9486°
argument of perigee: 349.4681°
revolutions per day: 5.75551132
mean anomaly at epoch: 3.1549°
orbit number at epoch: 27741

The dashed part of the orbit path shows where the satellite is in the earth's shadow,  

DLR